| time (UTC) | temp C | wind direction | speed KPH | gust KPH | rain 1hr cm | rain 24hr cm | rain mn cm | humidity % | barometer mb |
| 20260505175051 | 30 | 148 | 3.2 | 16.1 | 0.00 | 0.00 | 0.00 | 3 | 1010.2 |
| 20260505172253 | 28 | 293 | 3.2 | 14.5 | 0.00 | 0.00 | 0.00 | 3 | 1010.3 |
| 20260505172051 | 28 | 293 | 3.2 | 14.5 | 0.00 | 0.00 | 0.00 | 3 | 1010.3 |
| 20260505170551 | 28 | 186 | 4.8 | 9.7 | 0.00 | 0.00 | 0.00 | 3 | 1010.3 |
| 20260505165051 | 28 | 250 | 1.6 | 9.7 | 0.00 | 0.00 | 0.00 | 3 | 1010.7 |
| 20260505163551 | 28 | 157 | 0.0 | 1.6 | 0.00 | 0.00 | 0.00 | 3 | 1010.7 |
| 20260505162053 | 27 | 190 | 3.2 | 16.1 | 0.00 | 0.00 | 0.00 | 3 | 1010.9 |
| 20260505160552 | 27 | 249 | 0.0 | 4.8 | 0.00 | 0.00 | 0.00 | 4 | 1011.3 |
| 20260505152351 | 26 | 0 | 0.0 | 0.0 | 0.00 | 0.00 | 0.00 | 4 | 1011.3 |
| 20260505152051 | 26 | 0 | 0.0 | 0.0 | 0.00 | 0.00 | 0.00 | 4 | 1011.3 |
| 20260505150551 | 25 | 236 | 0.0 | 9.7 | 0.00 | 0.00 | 0.00 | 4 | 1011.6 |
| 20260505140552 | 23 | 209 | 3.2 | 9.7 | 0.00 | 0.00 | 0.00 | 4 | 1012.1 |
| 20260505123552 | 18 | 270 | 0.0 | 3.2 | 0.00 | 0.00 | 0.00 | 6 | 1012.2 |
| 20260505122051 | 18 | 303 | 0.0 | 4.8 | 0.00 | 0.00 | 0.00 | 6 | 1012.0 |
| 20260505120551 | 17 | 0 | 0.0 | 1.6 | 0.00 | 0.00 | 0.00 | 7 | 1011.9 |
| 20260505115051 | 17 | 0 | 0.0 | 0.0 | 0.00 | 0.00 | 0.00 | 7 | 1012.0 |
| 20260505113551 | 16 | 0 | 0.0 | 0.0 | 0.00 | 0.00 | 0.00 | 7 | 1012.1 |
| 20260504205949 | 24 | 338 | 6.4 | 11.3 | 0.00 | 0.00 | 0.00 | 2 | 1010.3 |
| 20260504204450 | 25 | 114 | 1.6 | 11.3 | 0.00 | 0.00 | 0.00 | 2 | 1010.3 |
| 20260504202948 | 25 | 222 | 4.8 | 17.7 | 0.00 | 0.00 | 0.00 | 2 | 1010.3 |
| 20260504201532 | 23 | 204 | 9.7 | 17.7 | 0.00 | 0.00 | 0.00 | 2 | 1010.5 |
| 20260504201450 | 23 | 204 | 9.7 | 17.7 | 0.00 | 0.00 | 0.00 | 2 | 1010.5 |
| 20260504200027 | 23 | 201 | 0.0 | 6.4 | 0.00 | 0.00 | 0.00 | 2 | 1010.6 |
| 20260504195949 | 23 | 201 | 0.0 | 6.4 | 0.00 | 0.00 | 0.00 | 2 | 1010.6 |
| 20260504194449 | 23 | 252 | 3.2 | 17.7 | 0.00 | 0.00 | 0.00 | 2 | 1010.8 |
| 20260504192948 | 23 | 296 | 6.4 | 14.5 | 0.00 | 0.00 | 0.00 | 3 | 1010.8 |
| 20260504191449 | 23 | 214 | 8.0 | 19.3 | 0.00 | 0.00 | 0.00 | 3 | 1011.2 |
| 20260504184449 | 23 | 210 | 4.8 | 12.9 | 0.00 | 0.00 | 0.00 | 3 | 1011.4 |
| 20260504183037 | 22 | 248 | 3.2 | 16.1 | 0.00 | 0.00 | 0.00 | 3 | 1012.0 |
| 20260504182948 | 22 | 248 | 3.2 | 16.1 | 0.00 | 0.00 | 0.00 | 3 | 1012.0 |
| 20260504181450 | 23 | 247 | 0.0 | 14.5 | 0.00 | 0.00 | 0.00 | 3 | 1012.0 |